OE5XCL Weather Reports


time (UTC)temp
F
wind
direction
speed
knots
gust
knots
rain 1hr
in
rain 24hr
in
rain mn
in
humidity
%
barometer
mb
20260507083044 0 317 8.7 14.8 0.00 0.02 0.00 1012.2
20260507081547 0 243 6.1 18.2 0.00 0.02 0.00 1012.1
20260507080036 0 279 8.7 15.6 0.00 0.02 0.00 1012.0
20260507074549 0 250 5.2 10.4 0.00 0.02 0.00 1012.0
20260507073027 0 281 7.8 12.2 0.00 0.02 0.00 1012.1
20260507071522 0 265 6.1 10.4 0.00 0.02 0.00 1011.9
20260507070021 0 289 6.1 13.0 0.00 0.02 0.00 1011.8
20260507064513 0 265 4.3 10.4 0.00 0.02 0.00 1011.8
20260507063016 0 260 7.0 12.2 0.00 0.02 0.00 1011.8
20260507061504 0 272 3.5 11.3 0.00 0.02 0.00 1011.9
20260507060105 0 282 4.3 9.6 0.00 0.02 0.00 1011.9
20260507054637 0 261 1.7 7.8 0.00 0.02 0.00 1011.7
20260507053053 0 260 1.7 7.0 0.00 0.02 0.00 1011.7
20260507051547 0 259 1.7 7.8 0.00 0.02 0.00 1011.4
20260507050042 0 276 0.0 5.2 0.00 0.02 0.00 1011.2
20260507044546 0 270 0.9 5.2 0.00 0.02 0.00 1011.0
20260507043033 0 271 0.0 7.8 0.00 0.02 0.00 1010.7
20260507041529 0 274 0.9 6.1 0.00 0.02 0.00 1010.6
20260507040027 0 276 3.5 7.8 0.00 0.02 0.00 1010.5
20260507034520 0 277 2.6 7.0 0.00 0.02 0.00 1010.5
20260507033021 0 279 1.7 7.0 0.00 0.02 0.00 1010.3
20260507031511 0 277 1.7 7.0 0.00 0.02 0.00 1010.2
20260507030007 0 278 0.0 3.5 0.00 0.02 0.00 1010.1
20260507024503 0 277 1.7 7.0 0.00 0.02 0.00 1010.1
20260507023106 0 279 2.6 7.0 0.00 0.02 0.00 1010.0
20260507021554 0 257 0.9 6.1 0.00 0.02 0.00 1010.0
20260507020055 0 260 0.9 7.8 0.00 0.02 0.00 1010.0
20260507014551 0 269 2.6 7.8 0.00 0.02 0.00 1009.9
20260507013044 0 277 1.7 7.0 0.00 0.02 0.00 1009.7
20260507011538 0 265 0.0 2.6 0.00 0.02 0.00 1009.7
20260507010034 0 266 0.9 7.0 0.00 0.02 0.00 1009.7
20260507004527 0 273 1.7 11.3 0.00 0.02 0.00 1009.7
20260507003022 0 267 2.6 9.6 0.00 0.02 0.00 1009.6
20260507001524 0 266 3.5 8.7 0.00 0.02 0.00 1009.5
20260507000016 0 269 3.5 8.7 0.00 0.02 0.00 1009.6
20260506234513 0 260 1.7 7.0 0.00 0.02 0.00 1009.5
20260506233005 0 261 2.6 7.0 0.00 0.02 0.00 1009.4
20260506231501 0 270 4.3 10.4 0.00 0.02 0.00 1009.3
20260506230056 0 271 2.6 7.8 0.00 0.02 0.00 1009.2
20260506224552 0 255 2.6 8.7 0.00 0.02 0.00 1009.0
20260506223047 0 244 2.6 8.7 0.00 0.02 0.00 1009.0
20260506221543 0 280 4.3 9.6 0.00 0.02 0.00 1008.7
20260506220039 0 254 0.9 6.1 0.00 0.02 0.00 1008.7
20260506214536 0 266 2.6 9.6 0.00 0.02 0.02 1008.4
20260506213031 0 244 2.6 9.6 0.00 0.02 0.02 1008.2
20260506211526 0 265 4.3 13.0 0.00 0.02 0.02 1008.1
20260506210021 0 263 6.1 14.8 0.00 0.02 0.02 1007.7
20260506204523 0 298 7.8 17.4 0.00 0.02 0.02 1007.5
20260506203012 0 263 7.8 17.4 0.00 0.02 0.02 1007.1
20260506201509 0 253 6.1 25.2 0.01 0.02 0.02 1007.1
20260506200004 0 255 4.3 13.0 0.02 0.02 0.02 1006.7
20260506194634 0 243 3.5 11.3 0.02 0.02 0.02 1006.4
20260506193104 0 269 1.7 9.6 0.02 0.02 0.02 1006.0
20260506191551 0 277 4.3 13.9 0.01 0.02 0.01 1005.7
20260506190050 0 257 7.0 17.4 0.00 0.01 0.00 1005.4
20260506184542 0 248 7.8 13.9 0.00 0.10 0.00 1004.8
20260506183037 0 294 5.2 19.1 0.00 0.10 0.00 1003.7
20260506181533 0 310 8.7 14.8 0.00 0.10 0.00 1003.0
20260506180034 0 299 10.4 22.6 0.00 0.10 0.00 1003.0
20260506174525 0 244 6.1 26.9 0.00 0.10 0.00 1002.5
20260506173019 0 261 2.6 9.6 0.00 0.10 0.00 1001.2
20260506171515 0 130 0.9 7.0 0.00 0.10 0.00 1000.1
20260506170011 0 155 4.3 9.6 0.00 0.10 0.00 999.7
20260506164506 0 145 4.3 14.8 0.00 0.10 0.00 999.5
20260506163002 0 135 3.5 12.2 0.00 0.10 0.00 1000.0
20260506161611 0 130 1.7 11.3 0.00 0.10 0.00 1000.3
20260506160054 0 129 1.7 8.7 0.00 0.10 0.00 1000.3
20260506154607 0 99 6.1 10.4 0.00 0.10 0.00 1000.6
20260506153051 0 104 1.7 13.0 0.00 0.10 0.00 1000.8
20260506151539 0 108 3.5 10.4 0.00 0.10 0.00 1001.0
20260506150035 0 88 5.2 9.6 0.00 0.10 0.00 1001.2
20260506144530 0 92 2.6 8.7 0.00 0.10 0.00 1001.3
20260506143033 0 73 4.3 9.6 0.00 0.10 0.00 1001.4
20260506141521 0 61 2.6 7.0 0.00 0.10 0.00 1001.6
20260506140017 0 93 3.5 7.8 0.00 0.10 0.00 1001.8
20260506134513 0 51 0.0 5.2 0.00 0.10 0.00 1002.1
20260506133008 0 96 3.5 7.0 0.00 0.10 0.00 1002.3
20260506131503 0 84 1.7 8.7 0.00 0.10 0.00 1002.5
20260506124555 0 59 2.6 4.3 0.00 0.10 0.00 1003.0
20260506123051 0 76 5.2 10.4 0.00 0.10 0.00 1003.2
20260506121546 0 68 1.7 7.0 0.00 0.10 0.00 1003.5
20260506120041 0 92 3.5 9.6 0.00 0.10 0.00 1003.7
20260506114543 0 76 0.9 5.2 0.00 0.10 0.00 1004.1
20260506113032 0 121 5.2 11.3 0.00 0.10 0.00 1004.2
20260506111535 0 59 0.9 10.4 0.00 0.10 0.00 1004.6
20260506110023 0 65 0.9 4.3 0.00 0.10 0.00 1004.7
20260506104519 0 64 0.9 7.0 0.00 0.10 0.00 1004.9
20260506103015 0 54 1.7 6.1 0.00 0.10 0.00 1005.2
20260506101510 0 71 1.7 7.8 0.00 0.10 0.00 1005.4
20260506100008 0 67 0.0 4.3 0.00 0.10 0.00 1005.8
20260506094503 0 69 1.7 4.3 0.00 0.10 0.00 1005.8
20260506093101 0 67 0.0 4.3 0.00 0.10 0.00 1005.9
20260506091555 0 95 2.6 5.2 0.00 0.10 0.00 1005.9
20260506090050 0 71 0.0 5.2 0.00 0.10 0.00 1005.9
20260506084547 0 71 0.9 5.2 0.00 0.10 0.00 1006.1